Hourly Weather Roundup
Issued by NWS Central Illinois

Home | Current Version | Previous Version | Text Only | Print | Product List | Glossary On
Versions: 1 2 3 4 5 6 7 8 9 10 11 12 13 14 15 16 17 18 19 20 21 22 23 24 25 26 27 28 29 30 31 32 33 34 35 36 37 38 39 40 41 42 43 44 45 46 47 48 49 50
000
NZUS43 KILX 220310
HWRILX

AREA WEATHER ROUNDUP
NATIONAL WEATHER SERVICE, LINCOLN IL
1000 PM CDT TUE OCT 21 2014


CITY           SKY/WX    TMP DP  RH WIND       PRES   REMARKS
BLOOMINGTON    CLEAR     42  39  89 NE8       30.25R
CHAMPAIGN      CLOUDY    50  40  68 N14G20    30.23S
DECATUR        CLEAR     42  38  85 NE8       30.23R
FLORA          CLEAR     48  40  73 NE6       30.21R
GALESBURG      CLEAR     46  39  76 E6        30.24R
JACKSONVILLE   CLEAR     48  40  73 E10       30.22R
LACON          CLEAR     42  37  82 E7        30.25S
LAWRENCEVILLE  CLEAR     47  43  86 N8        30.20R
LITCHFIELD     CLEAR     47  38  72 E8        30.21R
$$


CITY           SKY/WX    TMP DP  RH WIND       PRES   REMARKS
LINCOLN        CLEAR     42  39  88 CALM      30.24R
MACOMB         CLEAR     40  37  88 E6        30.25R
MATTOON        CLEAR     44  40  85 NE3       30.21R
MT CARMEL AP   CLEAR     52  43  71 N7        30.19S
OLNEY-NOBLE AP CLEAR     46  41  81 CALM      30.21R
PARIS          CLEAR     46  42  83 CALM      30.24R
PEORIA         CLEAR     49  39  68 E12       30.25R
PONTIAC        MOCLDY    46  39  75 NE7       30.26R
RANTOUL        CLOUDY    51  38  61 NE10G18   30.24S
ROBINSON       CLEAR     48  45  88 N6        30.22R
SPRINGFIELD    CLEAR     49  42  77 E12       30.23R
TAYLORVILLE    CLEAR     46  39  76 NE8       30.23R
$$

...REGIONAL REPORTS...


CITY           SKY/WX    TMP DP  RH WIND       PRES   REMARKS
CHICAGO O`HARE MOCLDY    46  38  73 N7        30.26S
KANKAKEE       CLOUDY    49  40  72 N6        30.26S
MOLINE         CLEAR     40  36  86 E7        30.25R
MOUNT VERNON   CLEAR     45  37  76 N3        30.21R
PITTSFIELD     CLEAR     50  40  68 CALM      30.21R
QUINCY         CLEAR     49  39  68 E6        30.20R
ROCKFORD       CLEAR     42  35  76 E6        30.30R
$$


CITY           SKY/WX    TMP DP  RH WIND       PRES   REMARKS
BURLINGTON     CLEAR     48  39  71 E7        30.22R
CEDAR RAPIDS   CLEAR     44  38  79 E9        30.21R
DES MOINES     CLEAR     55  41  59 SE13      30.16R
KIRKSVILLE     CLEAR     49  42  77 E6        30.19R
OTTUMWA        NOT AVBL
ST LOUIS       CLEAR     53  40  61 E5        30.20R
$$


CITY           SKY/WX    TMP DP  RH WIND       PRES   REMARKS
TERRE HAUTE    CLEAR     47  42  83 N8        30.22R
EVANSVILLE     CLEAR     48  40  73 N3        30.19R
INDIANAPOLIS   MOCLDY    50  42  74 N9        30.19R
LAFAYETTE      CLEAR     42  37  82 N3        30.23R
MADISON        CLEAR     34  32  92 CALM      30.29R
MILWAUKEE      CLEAR     45  33  63 NE10      30.28R
$$





USA.gov is the U.S. government's official web portal to all federal, state and local government web resources and services.